Flag for U.S.A. Weather past 2 weeks in Farmington, New Mexico, U.S.A.

Now
82 °F

Sunny.


Feels Like: 82 °F
Forecast: 62 / 86 °F
Wind: 7 mph from Southeast

Location: Four Corners Regional Airport

Current Time: Jul 4, 2015 at 12:11:27 PM

Latest Report: Jul 4, 2015 at 11:53 AM


Visibility: 10 mi

Pressure: 29.92 "Hg (24.90 "Hg at 1617m altitude)

Humidity: 41%

Dew point: 56 °F

Location of FarmingtonLocation

Historic Weather in Farmington — Graph

°F

Farmington temperature yesterday

Maximum temperature yesterday: 90 °F (at 2:53 PM)
Minimum temperature yesterday: 63 °F (at 5:53 AM)
Average temperature yesterday: 73 °F

Past Weeks' High & Low Weather Summary

 TemperatureHumidityPressure
High98 °F (Jun 21, 3:53 PM)81% (Jul 3, 8:53 PM)30.11 "Hg (Jul 3, 8:53 PM)
Low53 °F (Jun 20, 3:53 AM)6% (Jun 20, 5:53 PM)29.73 "Hg (Jul 1, 5:53 PM)
Average78 °F33%29.93 "Hg
* Reported Jun 19 10:53 AM — Jul 4 10:53 AM, Farmington, Weather by CustomWeather, © 2015

Note: Actual official high and low records may vary slightly from our data, if they occured in-between our weather recording intervals... More about our weather records

Advertising

Farmington weather history for previous 24 hours

 ConditionsComfort  
Time TempWeatherWind HumidityBarometerVisibility
10:53 AM
Sat, Jul 4
79 °FSunny.6 mph44%29.94 "Hg10 mi
9:53 AM74 °FSunny.7 mph50%29.99 "Hg10 mi
8:53 AM70 °FSunny.7 mph51%30.00 "Hg10 mi
7:53 AM67 °FSunny.6 mph59%30.01 "Hg10 mi
6:53 AM61 °FClear.3 mph75%29.99 "Hg10 mi
5:53 AM61 °FClear.9 mph70%29.95 "Hg10 mi
4:53 AM60 °FClear.7 mph78%29.93 "Hg10 mi
3:53 AM61 °FClear.8 mph81%29.93 "Hg10 mi
2:53 AM62 °FClear.7 mph78%29.93 "Hg10 mi
1:53 AM64 °FClear.7 mph68%29.93 "Hg10 mi
12:53 AM66 °FClear.3 mph68%29.91 "Hg10 mi
11:53 PM
Fri, Jul 3
68 °FClear.8 mph61%29.89 "Hg10 mi
10:53 PM70 °FClear.14 mph57%29.92 "Hg10 mi
9:53 PM68 °FLight rain. Partly cloudy.12 mph73%29.93 "Hg10 mi
8:53 PM66 °FThundershowers. More clouds than sun.8 mph81%30.00 "Hg9 mi
7:53 PM66 °FThunderstorms. Overcast.28 mph70%29.95 "Hg10 mi
6:53 PM79 °FThundershowers. Sunny.17 mph36%29.88 "Hg10 mi
5:53 PM89 °FSunny.7 mph25%29.83 "Hg10 mi
4:53 PM89 °FSunny.No wind25%29.83 "Hg10 mi
3:53 PM88 °FSunny.6 mph27%29.85 "Hg10 mi
2:53 PM90 °FSunny.3 mph26%29.87 "Hg10 mi
1:53 PM86 °FSunny.6 mph31%29.92 "Hg10 mi
12:53 PM83 °FSunny.3 mph34%29.95 "Hg10 mi
Weather by CustomWeather, © 2015

See weather overviewHow to use our weather pages